Year,Month,Day,Hour,Minute,Value (Times are PST for temperature in C)
2013,08,24,00,00,15.00
2013,08,24,00,01,15.00
2013,08,24,00,02,15.00
2013,08,24,00,03,15.00
2013,08,24,00,04,15.00
2013,08,24,00,05,15.00
2013,08,24,00,06,15.00
2013,08,24,00,07,15.00
2013,08,24,00,08,15.00
2013,08,24,00,09,15.00
2013,08,24,00,10,15.00
2013,08,24,00,11,15.00
2013,08,24,00,12,15.00
2013,08,24,00,13,15.00
2013,08,24,00,14,15.00
2013,08,24,00,15,15.00
2013,08,24,00,16,15.00
2013,08,24,00,17,15.00
2013,08,24,00,18,15.00
2013,08,24,00,19,15.00
2013,08,24,00,20,15.00
2013,08,24,00,21,15.00
2013,08,24,00,22,15.00
2013,08,24,00,23,15.00
2013,08,24,00,24,15.00
2013,08,24,00,25,15.00
2013,08,24,00,26,15.00
2013,08,24,00,27,15.00
2013,08,24,00,28,15.00
2013,08,24,00,29,15.10
2013,08,24,00,30,15.10
2013,08,24,00,31,15.20
2013,08,24,00,32,15.20
2013,08,24,00,33,15.20
2013,08,24,00,34,15.30
2013,08,24,00,35,15.30
2013,08,24,00,36,15.40
2013,08,24,00,37,15.40
2013,08,24,00,38,15.50
2013,08,24,00,39,15.50
2013,08,24,00,40,15.60
2013,08,24,00,41,15.70
2013,08,24,00,42,15.70
2013,08,24,00,43,15.80
2013,08,24,00,44,15.90
2013,08,24,00,45,16.00
2013,08,24,00,46,16.10
2013,08,24,00,47,16.20
2013,08,24,00,48,16.30
2013,08,24,00,49,16.40
2013,08,24,00,50,16.40
2013,08,24,00,51,16.50
2013,08,24,00,52,16.50
2013,08,24,00,53,16.60
2013,08,24,00,54,16.60
2013,08,24,00,55,16.70
2013,08,24,00,56,16.70
2013,08,24,00,57,16.80
2013,08,24,00,58,16.80
2013,08,24,00,59,16.80
2013,08,24,01,00,16.80
2013,08,24,01,01,16.80
2013,08,24,01,02,16.90
2013,08,24,01,03,16.90
2013,08,24,01,04,16.90
2013,08,24,01,05,16.90
2013,08,24,01,06,16.90
2013,08,24,01,07,16.90
2013,08,24,01,08,16.90
2013,08,24,01,09,16.90
2013,08,24,01,10,16.90
2013,08,24,01,11,16.90
2013,08,24,01,12,16.90
2013,08,24,01,13,16.90
2013,08,24,01,14,16.90
2013,08,24,01,15,16.90
2013,08,24,01,16,16.90
2013,08,24,01,17,16.90
2013,08,24,01,18,16.90
2013,08,24,01,19,16.90
2013,08,24,01,20,16.90
2013,08,24,01,21,17.00
2013,08,24,01,22,17.00
2013,08,24,01,23,17.00
2013,08,24,01,24,17.00
2013,08,24,01,25,17.00
2013,08,24,01,26,17.00
2013,08,24,01,27,17.00
2013,08,24,01,28,17.00
2013,08,24,01,29,17.00
2013,08,24,01,30,17.00
2013,08,24,01,31,17.00
2013,08,24,01,32,17.00
2013,08,24,01,33,17.00
2013,08,24,01,34,17.00
2013,08,24,01,35,17.00
2013,08,24,01,36,16.90
2013,08,24,01,37,16.90
2013,08,24,01,38,16.80
2013,08,24,01,39,16.80
2013,08,24,01,40,16.80
2013,08,24,01,41,16.80
2013,08,24,01,42,16.80
2013,08,24,01,43,16.80
2013,08,24,01,44,16.80
2013,08,24,01,45,16.80
2013,08,24,01,46,16.80
2013,08,24,01,47,16.80
2013,08,24,01,48,16.80
2013,08,24,01,49,16.80
2013,08,24,01,50,16.80
2013,08,24,01,51,16.80
2013,08,24,01,52,16.80
2013,08,24,01,53,16.80
2013,08,24,01,54,16.80
2013,08,24,01,55,16.80
2013,08,24,01,56,16.80
2013,08,24,01,57,16.80
2013,08,24,01,58,16.80
2013,08,24,01,59,16.70
2013,08,24,02,00,16.70
2013,08,24,02,01,16.70
2013,08,24,02,02,16.70
2013,08,24,02,03,16.70
2013,08,24,02,04,16.70
2013,08,24,02,05,16.70
2013,08,24,02,06,16.60
2013,08,24,02,07,16.60
2013,08,24,02,08,16.60
2013,08,24,02,09,16.60
2013,08,24,02,10,16.60
2013,08,24,02,11,16.60
2013,08,24,02,12,16.60
2013,08,24,02,13,16.60
2013,08,24,02,14,16.60
2013,08,24,02,15,16.60
2013,08,24,02,16,16.60
2013,08,24,02,17,16.60
2013,08,24,02,18,16.60
2013,08,24,02,19,16.60
2013,08,24,02,20,16.60
2013,08,24,02,21,16.60
2013,08,24,02,22,16.60
2013,08,24,02,23,16.60
2013,08,24,02,24,16.60
2013,08,24,02,25,16.70
2013,08,24,02,26,16.70
2013,08,24,02,27,16.70
2013,08,24,02,28,16.70
2013,08,24,02,29,16.70
2013,08,24,02,30,16.70
2013,08,24,02,31,16.70
2013,08,24,02,32,16.70
2013,08,24,02,33,16.70
2013,08,24,02,34,16.80
2013,08,24,02,35,16.80
2013,08,24,02,36,16.80
2013,08,24,02,37,16.80
2013,08,24,02,38,16.80
2013,08,24,02,39,16.80
2013,08,24,02,40,16.80
2013,08,24,02,41,16.80
2013,08,24,02,42,16.80
2013,08,24,02,43,16.80
2013,08,24,02,44,16.80
2013,08,24,02,45,16.80
2013,08,24,02,46,16.80
2013,08,24,02,47,16.80
2013,08,24,02,48,16.80
2013,08,24,02,49,16.80
2013,08,24,02,50,16.80
2013,08,24,02,51,16.80
2013,08,24,02,52,16.70
2013,08,24,02,53,16.70
2013,08,24,02,54,16.70
2013,08,24,02,55,16.70
2013,08,24,02,56,16.70
2013,08,24,02,57,16.70
2013,08,24,02,58,16.70
2013,08,24,02,59,16.70
2013,08,24,03,00,16.70
2013,08,24,03,01,16.70
2013,08,24,03,02,16.70
2013,08,24,03,03,16.70
2013,08,24,03,04,16.70
2013,08,24,03,05,16.70
2013,08,24,03,06,16.70
2013,08,24,03,07,16.70
2013,08,24,03,08,16.60
2013,08,24,03,09,16.60
2013,08,24,03,10,16.60
2013,08,24,03,11,16.60
2013,08,24,03,12,16.60
2013,08,24,03,13,16.60
2013,08,24,03,14,16.60
2013,08,24,03,15,16.50
2013,08,24,03,16,16.50
2013,08,24,03,17,16.50
2013,08,24,03,18,16.40
2013,08,24,03,19,16.40
2013,08,24,03,20,16.40
2013,08,24,03,21,16.40
2013,08,24,03,22,16.30
2013,08,24,03,23,16.30
2013,08,24,03,24,16.30
2013,08,24,03,25,16.30
2013,08,24,03,26,16.30
2013,08,24,03,27,16.20
2013,08,24,03,28,16.20
2013,08,24,03,29,16.20
2013,08,24,03,30,16.20
2013,08,24,03,31,16.20
2013,08,24,03,32,16.20
2013,08,24,03,33,16.20
2013,08,24,03,34,16.20
2013,08,24,03,35,16.20
2013,08,24,03,36,16.20
2013,08,24,03,37,16.20
2013,08,24,03,38,16.10
2013,08,24,03,39,16.10
2013,08,24,03,40,16.10
2013,08,24,03,41,16.10
2013,08,24,03,42,16.20
2013,08,24,03,43,16.20
2013,08,24,03,44,16.20
2013,08,24,03,45,16.20
2013,08,24,03,46,16.20
2013,08,24,03,47,16.20
2013,08,24,03,48,16.20
2013,08,24,03,49,16.20
2013,08,24,03,50,16.20
2013,08,24,03,51,16.20
2013,08,24,03,52,16.20
2013,08,24,03,53,16.30
2013,08,24,03,54,16.30
2013,08,24,03,55,16.30
2013,08,24,03,56,16.30
2013,08,24,03,57,16.30
2013,08,24,03,58,16.30
2013,08,24,03,59,16.30
2013,08,24,04,00,16.30
2013,08,24,04,01,16.30
2013,08,24,04,02,16.30
2013,08,24,04,03,16.30
2013,08,24,04,04,16.30
2013,08,24,04,05,16.30
2013,08,24,04,06,16.30
2013,08,24,04,07,16.30
2013,08,24,04,08,16.30
2013,08,24,04,09,16.30
2013,08,24,04,10,16.30
2013,08,24,04,11,16.30
2013,08,24,04,12,16.20
2013,08,24,04,13,16.20
2013,08,24,04,14,16.20
2013,08,24,04,15,16.20
2013,08,24,04,16,16.20
2013,08,24,04,17,16.20
2013,08,24,04,18,16.20
2013,08,24,04,19,16.20
2013,08,24,04,20,16.20
2013,08,24,04,21,16.10
2013,08,24,04,22,16.10
2013,08,24,04,23,16.10
2013,08,24,04,24,16.10
2013,08,24,04,25,16.00
2013,08,24,04,26,16.00
2013,08,24,04,27,16.00
2013,08,24,04,28,16.00
2013,08,24,04,29,16.00
2013,08,24,04,30,15.90
2013,08,24,04,31,15.90
2013,08,24,04,32,15.90
2013,08,24,04,33,15.90
2013,08,24,04,34,15.90
2013,08,24,04,35,15.80
2013,08,24,04,36,15.80
2013,08,24,04,37,15.80
2013,08,24,04,38,15.70
2013,08,24,04,39,15.70
2013,08,24,04,40,15.60
2013,08,24,04,41,15.60
2013,08,24,04,42,15.50
2013,08,24,04,43,15.50
2013,08,24,04,44,15.40
2013,08,24,04,45,15.40
2013,08,24,04,46,15.30
2013,08,24,04,47,15.30
2013,08,24,04,48,15.30
2013,08,24,04,49,15.20
2013,08,24,04,50,15.20
2013,08,24,04,51,15.10
2013,08,24,04,52,15.00
2013,08,24,04,53,15.00
2013,08,24,04,54,15.00
2013,08,24,04,55,15.00
2013,08,24,04,56,15.00
2013,08,24,04,57,15.00
2013,08,24,04,58,15.00
2013,08,24,04,59,14.90
2013,08,24,05,00,14.80
2013,08,24,05,01,14.80
2013,08,24,05,02,14.80
2013,08,24,05,03,14.80
2013,08,24,05,04,14.70
2013,08,24,05,05,14.70
2013,08,24,05,06,14.70
2013,08,24,05,07,14.70
2013,08,24,05,08,14.60
2013,08,24,05,09,14.60
2013,08,24,05,10,14.60
2013,08,24,05,11,14.60
2013,08,24,05,12,14.50
2013,08,24,05,13,14.50
2013,08,24,05,14,14.50
2013,08,24,05,15,14.40
2013,08,24,05,16,14.40
2013,08,24,05,17,14.40
2013,08,24,05,18,14.40
2013,08,24,05,19,14.40
2013,08,24,05,20,14.40
2013,08,24,05,21,14.30
2013,08,24,05,22,14.30
2013,08,24,05,23,14.30
2013,08,24,05,24,14.30
2013,08,24,05,25,14.30
2013,08,24,05,26,14.30
2013,08,24,05,27,14.30
2013,08,24,05,28,14.20
2013,08,24,05,29,14.20
2013,08,24,05,30,14.20
2013,08,24,05,31,14.20
2013,08,24,05,32,14.20
2013,08,24,05,33,14.20
2013,08,24,05,34,14.20
2013,08,24,05,35,14.10
2013,08,24,05,36,14.10
2013,08,24,05,37,14.10
2013,08,24,05,38,14.10
2013,08,24,05,39,14.10
2013,08,24,05,40,14.10
2013,08,24,05,41,14.10
2013,08,24,05,42,14.10
2013,08,24,05,43,14.10
2013,08,24,05,44,14.10
2013,08,24,05,45,14.10
2013,08,24,05,46,14.10
2013,08,24,05,47,14.10
2013,08,24,05,48,14.10
2013,08,24,05,49,14.10
2013,08,24,05,50,14.10
2013,08,24,05,51,14.00
2013,08,24,05,52,14.00
2013,08,24,05,53,14.00
2013,08,24,05,54,14.00
2013,08,24,05,55,14.00
2013,08,24,05,56,14.00
2013,08,24,05,57,14.00
2013,08,24,05,58,14.00
2013,08,24,05,59,14.00
2013,08,24,06,00,14.00
2013,08,24,06,01,14.00
2013,08,24,06,02,14.00
2013,08,24,06,03,14.00
2013,08,24,06,04,14.00
2013,08,24,06,05,14.00
2013,08,24,06,06,14.00
2013,08,24,06,07,14.00
2013,08,24,06,08,14.00
2013,08,24,06,09,14.00
2013,08,24,06,10,14.00
2013,08,24,06,11,14.00
2013,08,24,06,12,14.00
2013,08,24,06,13,14.00
2013,08,24,06,14,14.00
2013,08,24,06,15,14.00
2013,08,24,06,16,14.00
2013,08,24,06,17,14.00
2013,08,24,06,18,14.00
2013,08,24,06,19,14.00
2013,08,24,06,20,14.00
2013,08,24,06,21,14.00
2013,08,24,06,22,14.00
2013,08,24,06,23,14.00
2013,08,24,06,24,14.00
2013,08,24,06,25,14.00
2013,08,24,06,26,14.00
2013,08,24,06,27,14.00
2013,08,24,06,28,14.00
2013,08,24,06,29,14.00
2013,08,24,06,30,14.00
2013,08,24,06,31,14.00
2013,08,24,06,32,13.90
2013,08,24,06,33,13.90
2013,08,24,06,34,13.90
2013,08,24,06,35,13.90
2013,08,24,06,36,13.90
2013,08,24,06,37,13.90
2013,08,24,06,38,13.90
2013,08,24,06,39,13.90
2013,08,24,06,40,13.90
2013,08,24,06,41,13.90
2013,08,24,06,42,13.90
2013,08,24,06,43,13.90
2013,08,24,06,44,13.90
2013,08,24,06,45,13.90
2013,08,24,06,46,13.90
2013,08,24,06,47,13.90
2013,08,24,06,48,13.90
2013,08,24,06,49,13.90
2013,08,24,06,50,13.90
2013,08,24,06,51,13.90
2013,08,24,06,52,14.00
2013,08,24,06,53,14.00
2013,08,24,06,54,14.00
2013,08,24,06,55,14.10
2013,08,24,06,56,14.10
2013,08,24,06,57,14.10
2013,08,24,06,58,14.10
2013,08,24,06,59,14.10
2013,08,24,07,00,14.10
2013,08,24,07,01,14.10
2013,08,24,07,02,14.10
2013,08,24,07,03,14.10
2013,08,24,07,04,14.10
2013,08,24,07,05,14.20
2013,08,24,07,06,14.20
2013,08,24,07,07,14.20
2013,08,24,07,08,14.20
2013,08,24,07,09,14.20
2013,08,24,07,10,14.20
2013,08,24,07,11,14.20
2013,08,24,07,12,14.20
2013,08,24,07,13,14.20
2013,08,24,07,14,14.30
2013,08,24,07,15,14.30
2013,08,24,07,16,14.30
2013,08,24,07,17,14.40
2013,08,24,07,18,14.40
2013,08,24,07,19,14.50
2013,08,24,07,20,14.50
2013,08,24,07,21,14.60
2013,08,24,07,22,14.60
2013,08,24,07,23,14.70
2013,08,24,07,24,14.70
2013,08,24,07,25,14.70
2013,08,24,07,26,14.80
2013,08,24,07,27,14.80
2013,08,24,07,28,14.80
2013,08,24,07,29,14.90
2013,08,24,07,30,14.90
2013,08,24,07,31,15.00
2013,08,24,07,32,15.00
2013,08,24,07,33,15.00
2013,08,24,07,34,15.00
2013,08,24,07,35,15.00
2013,08,24,07,36,15.10
2013,08,24,07,37,15.20
2013,08,24,07,38,15.30
2013,08,24,07,39,15.40
2013,08,24,07,40,15.50
2013,08,24,07,41,15.50
2013,08,24,07,42,15.60
2013,08,24,07,43,15.70
2013,08,24,07,44,15.70
2013,08,24,07,45,15.80
2013,08,24,07,46,15.80
2013,08,24,07,47,15.90
2013,08,24,07,48,15.90
2013,08,24,07,49,15.90
2013,08,24,07,50,15.90
2013,08,24,07,51,15.90
2013,08,24,07,52,15.90
2013,08,24,07,53,15.90
2013,08,24,07,54,15.90
2013,08,24,07,55,15.90
2013,08,24,07,56,16.00
2013,08,24,07,57,16.00
2013,08,24,07,58,16.00
2013,08,24,07,59,16.00
2013,08,24,08,00,16.10
2013,08,24,08,01,16.10
2013,08,24,08,02,16.10
2013,08,24,08,03,16.20
2013,08,24,08,04,16.20
2013,08,24,08,05,16.20
2013,08,24,08,06,16.30
2013,08,24,08,07,16.30
2013,08,24,08,08,16.40
2013,08,24,08,09,16.50
2013,08,24,08,10,16.60
2013,08,24,08,11,16.60
2013,08,24,08,12,16.60
2013,08,24,08,13,16.70
2013,08,24,08,14,16.70
2013,08,24,08,15,16.70
2013,08,24,08,16,16.80
2013,08,24,08,17,16.80
2013,08,24,08,18,16.80
2013,08,24,08,19,16.80
2013,08,24,08,20,16.80
2013,08,24,08,21,16.90
2013,08,24,08,22,16.90
2013,08,24,08,23,16.90
2013,08,24,08,24,16.90
2013,08,24,08,25,16.90
2013,08,24,08,26,16.90
2013,08,24,08,27,16.90
2013,08,24,08,28,16.80
2013,08,24,08,29,16.70
2013,08,24,08,30,16.70
2013,08,24,08,31,16.60
2013,08,24,08,32,16.50
2013,08,24,08,33,16.50
2013,08,24,08,34,16.40
2013,08,24,08,35,16.40
2013,08,24,08,36,16.40
2013,08,24,08,37,16.30
2013,08,24,08,38,16.30
2013,08,24,08,39,16.30
2013,08,24,08,40,16.30
2013,08,24,08,41,16.30
2013,08,24,08,42,16.30
2013,08,24,08,43,16.30
2013,08,24,08,44,16.40
2013,08,24,08,45,16.50
2013,08,24,08,46,16.50
2013,08,24,08,47,16.60
2013,08,24,08,48,16.70
2013,08,24,08,49,16.80
2013,08,24,08,50,16.90
2013,08,24,08,51,16.90
2013,08,24,08,52,17.00
2013,08,24,08,53,17.10
2013,08,24,08,54,17.10
2013,08,24,08,55,17.10
2013,08,24,08,56,17.00
2013,08,24,08,57,17.00
2013,08,24,08,58,16.90
2013,08,24,08,59,16.90
2013,08,24,09,00,16.80
2013,08,24,09,01,16.80
2013,08,24,09,02,16.80
2013,08,24,09,03,16.80
2013,08,24,09,04,16.90
2013,08,24,09,05,16.90
2013,08,24,09,06,16.90
2013,08,24,09,07,17.00
2013,08,24,09,08,17.00
2013,08,24,09,09,17.10
2013,08,24,09,10,17.20
2013,08,24,09,11,17.20
2013,08,24,09,12,17.30
2013,08,24,09,13,17.30
2013,08,24,09,14,17.30
2013,08,24,09,15,17.30
2013,08,24,09,16,17.30
2013,08,24,09,17,17.40
2013,08,24,09,18,17.40
2013,08,24,09,19,17.50
2013,08,24,09,20,17.50
2013,08,24,09,21,17.60
2013,08,24,09,22,17.60
2013,08,24,09,23,17.70
2013,08,24,09,24,17.70
2013,08,24,09,25,17.70
2013,08,24,09,26,17.70
2013,08,24,09,27,17.70
2013,08,24,09,28,17.70
2013,08,24,09,29,17.60
2013,08,24,09,30,17.60
2013,08,24,09,31,17.60
2013,08,24,09,32,17.60
2013,08,24,09,33,17.60
2013,08,24,09,34,17.50
2013,08,24,09,35,17.50
2013,08,24,09,36,17.50
2013,08,24,09,37,17.40
2013,08,24,09,38,17.40
2013,08,24,09,39,17.40
2013,08,24,09,40,17.40
2013,08,24,09,41,17.40
2013,08,24,09,42,17.40
2013,08,24,09,43,17.40
2013,08,24,09,44,17.50
2013,08,24,09,45,17.50
2013,08,24,09,46,17.60
2013,08,24,09,47,17.60
2013,08,24,09,48,17.70
2013,08,24,09,49,17.70
2013,08,24,09,50,17.70
2013,08,24,09,51,17.80
2013,08,24,09,52,17.80
2013,08,24,09,53,17.90
2013,08,24,09,54,17.90
2013,08,24,09,55,17.90
2013,08,24,09,56,17.90
2013,08,24,09,57,17.90
2013,08,24,09,58,17.90
2013,08,24,09,59,17.90
2013,08,24,10,00,17.90
2013,08,24,10,01,17.90
2013,08,24,10,02,17.90
2013,08,24,10,03,17.90
2013,08,24,10,04,17.90
2013,08,24,10,05,18.00
2013,08,24,10,06,18.00
2013,08,24,10,07,18.10
2013,08,24,10,08,18.20
2013,08,24,10,09,18.20
2013,08,24,10,10,18.30
2013,08,24,10,11,18.30
2013,08,24,10,12,18.40
2013,08,24,10,13,18.40
2013,08,24,10,14,18.40
2013,08,24,10,15,18.50
2013,08,24,10,16,18.60
2013,08,24,10,17,18.60
2013,08,24,10,18,18.60
2013,08,24,10,19,18.70
2013,08,24,10,20,18.70
2013,08,24,10,21,18.80
2013,08,24,10,22,18.80
2013,08,24,10,23,18.90
2013,08,24,10,24,18.90
2013,08,24,10,25,19.00
2013,08,24,10,26,19.00
2013,08,24,10,27,19.10
2013,08,24,10,28,19.10
2013,08,24,10,29,19.20
2013,08,24,10,30,19.20
2013,08,24,10,31,19.20
2013,08,24,10,32,19.10
2013,08,24,10,33,18.90
2013,08,24,10,34,18.90
2013,08,24,10,35,18.80
2013,08,24,10,36,18.70
2013,08,24,10,37,18.60
2013,08,24,10,38,18.60
2013,08,24,10,39,18.60
2013,08,24,10,40,18.60
2013,08,24,10,41,18.60
2013,08,24,10,42,18.70
2013,08,24,10,43,18.80
2013,08,24,10,44,18.80
2013,08,24,10,45,18.90
2013,08,24,10,46,18.90
2013,08,24,10,47,18.90
2013,08,24,10,48,18.90
2013,08,24,10,49,18.90
2013,08,24,10,50,18.90
2013,08,24,10,51,19.00
2013,08,24,10,52,19.10
2013,08,24,10,53,19.20
2013,08,24,10,54,19.30
2013,08,24,10,55,19.40
2013,08,24,10,56,19.30
2013,08,24,10,57,19.30
2013,08,24,10,58,19.20
2013,08,24,10,59,19.10
2013,08,24,11,00,19.00
2013,08,24,11,01,18.90
2013,08,24,11,02,18.80
2013,08,24,11,03,18.80
2013,08,24,11,04,18.80
2013,08,24,11,05,18.80
2013,08,24,11,06,18.80
2013,08,24,11,07,18.90
2013,08,24,11,08,19.00
2013,08,24,11,09,19.00
2013,08,24,11,10,19.10
2013,08,24,11,11,19.20
2013,08,24,11,12,19.30
2013,08,24,11,13,19.30
2013,08,24,11,14,19.30
2013,08,24,11,15,19.30
2013,08,24,11,16,19.40
2013,08,24,11,17,19.30
2013,08,24,11,18,19.20
2013,08,24,11,19,19.20
2013,08,24,11,20,19.10
2013,08,24,11,21,19.20
2013,08,24,11,22,19.20
2013,08,24,11,23,19.20
2013,08,24,11,24,19.10
2013,08,24,11,25,19.10
2013,08,24,11,26,19.10
2013,08,24,11,27,19.10
2013,08,24,11,28,19.10
2013,08,24,11,29,19.00
2013,08,24,11,30,18.90
2013,08,24,11,31,19.00
2013,08,24,11,32,19.00
2013,08,24,11,33,19.00
2013,08,24,11,34,19.00
2013,08,24,11,35,18.90
2013,08,24,11,36,18.90
2013,08,24,11,37,18.90
2013,08,24,11,38,18.90
2013,08,24,11,39,18.80
2013,08,24,11,40,18.80
2013,08,24,11,41,18.80
2013,08,24,11,42,18.80
2013,08,24,11,43,18.80
2013,08,24,11,44,18.80
2013,08,24,11,45,18.80
2013,08,24,11,46,18.80
2013,08,24,11,47,18.80
2013,08,24,11,48,18.80
2013,08,24,11,49,18.80
2013,08,24,11,50,18.90
2013,08,24,11,51,18.90
2013,08,24,11,52,18.90
2013,08,24,11,53,19.00
2013,08,24,11,54,19.10
2013,08,24,11,55,19.20
2013,08,24,11,56,19.30
2013,08,24,11,57,19.40
2013,08,24,11,58,19.50
2013,08,24,11,59,19.50
2013,08,24,12,00,19.50
2013,08,24,12,01,19.50
2013,08,24,12,02,19.50
2013,08,24,12,03,19.50
2013,08,24,12,04,19.60
2013,08,24,12,05,19.70
2013,08,24,12,06,19.70
2013,08,24,12,07,19.70
2013,08,24,12,08,19.70
2013,08,24,12,09,19.80
2013,08,24,12,10,19.80
2013,08,24,12,11,19.80
2013,08,24,12,12,19.90
2013,08,24,12,13,19.90
2013,08,24,12,14,20.00
2013,08,24,12,15,20.10
2013,08,24,12,16,20.00
2013,08,24,12,17,20.00
2013,08,24,12,18,20.00
2013,08,24,12,19,20.10
2013,08,24,12,20,20.20
2013,08,24,12,21,20.30
2013,08,24,12,22,20.30
2013,08,24,12,23,20.30
2013,08,24,12,24,20.30
2013,08,24,12,25,20.30
2013,08,24,12,26,20.20
2013,08,24,12,27,20.20
2013,08,24,12,28,20.20
2013,08,24,12,29,20.30
2013,08,24,12,30,20.40
2013,08,24,12,31,20.40
2013,08,24,12,32,20.30
2013,08,24,12,33,20.10
2013,08,24,12,34,20.10
2013,08,24,12,35,20.10
2013,08,24,12,36,20.10
2013,08,24,12,37,20.10
2013,08,24,12,38,20.10
2013,08,24,12,39,20.00
2013,08,24,12,40,19.90
2013,08,24,12,41,19.90
2013,08,24,12,42,19.90
2013,08,24,12,43,19.90
2013,08,24,12,44,19.80
2013,08,24,12,45,19.80
2013,08,24,12,46,19.90
2013,08,24,12,47,19.90
2013,08,24,12,48,19.90
2013,08,24,12,49,20.00
2013,08,24,12,50,20.10
2013,08,24,12,51,20.10
2013,08,24,12,52,20.20
2013,08,24,12,53,20.20
2013,08,24,12,54,20.20
2013,08,24,12,55,20.20
2013,08,24,12,56,20.10
2013,08,24,12,57,20.20
2013,08,24,12,58,20.20
2013,08,24,12,59,20.20
2013,08,24,13,00,20.30
2013,08,24,13,01,20.20
2013,08,24,13,02,20.10
2013,08,24,13,03,20.10
2013,08,24,13,04,20.20
2013,08,24,13,05,20.20
2013,08,24,13,06,20.20
2013,08,24,13,07,20.20
2013,08,24,13,08,20.30
2013,08,24,13,09,20.50
2013,08,24,13,10,20.50
2013,08,24,13,11,20.60
2013,08,24,13,12,20.60
2013,08,24,13,13,20.70
2013,08,24,13,14,20.80
2013,08,24,13,15,20.80
2013,08,24,13,16,20.80
2013,08,24,13,17,20.80
2013,08,24,13,18,20.80
2013,08,24,13,19,20.70
2013,08,24,13,20,20.70
2013,08,24,13,21,20.70
2013,08,24,13,22,20.80
2013,08,24,13,23,20.90
2013,08,24,13,24,20.90
2013,08,24,13,25,20.90
2013,08,24,13,26,20.90
2013,08,24,13,27,21.00
2013,08,24,13,28,21.00
2013,08,24,13,29,21.10
2013,08,24,13,30,21.10
2013,08,24,13,31,21.00
2013,08,24,13,32,20.90
2013,08,24,13,33,20.80
2013,08,24,13,34,20.80
2013,08,24,13,35,20.90
2013,08,24,13,36,20.90
2013,08,24,13,37,20.90
2013,08,24,13,38,20.90
2013,08,24,13,39,21.00
2013,08,24,13,40,21.00
2013,08,24,13,41,20.80
2013,08,24,13,42,20.60
2013,08,24,13,43,20.50
2013,08,24,13,44,20.40
2013,08,24,13,45,20.20
2013,08,24,13,46,20.10
2013,08,24,13,47,20.00
2013,08,24,13,48,20.00
2013,08,24,13,49,19.90
2013,08,24,13,50,19.80
2013,08,24,13,51,19.80
2013,08,24,13,52,19.80
2013,08,24,13,53,19.70
2013,08,24,13,54,19.70
2013,08,24,13,55,19.70
2013,08,24,13,56,19.70
2013,08,24,13,57,19.70
2013,08,24,13,58,19.60
2013,08,24,13,59,19.60
2013,08,24,14,00,19.60
2013,08,24,14,01,19.60
2013,08,24,14,02,19.60
2013,08,24,14,03,19.60
2013,08,24,14,04,19.60
2013,08,24,14,05,19.50
2013,08,24,14,06,19.50
2013,08,24,14,07,19.50
2013,08,24,14,08,19.50
2013,08,24,14,09,19.60
2013,08,24,14,10,19.60
2013,08,24,14,11,19.60
2013,08,24,14,12,19.50
2013,08,24,14,13,19.50
2013,08,24,14,14,19.40
2013,08,24,14,15,19.40
2013,08,24,14,16,19.40
2013,08,24,14,17,19.40
2013,08,24,14,18,19.40
2013,08,24,14,19,19.40
2013,08,24,14,20,19.40
2013,08,24,14,21,19.30
2013,08,24,14,22,19.30
2013,08,24,14,23,19.30
2013,08,24,14,24,19.30
2013,08,24,14,25,19.20
2013,08,24,14,26,19.20
2013,08,24,14,27,19.10
2013,08,24,14,28,19.10
2013,08,24,14,29,19.10
2013,08,24,14,30,19.10
2013,08,24,14,31,19.10
2013,08,24,14,32,19.10
2013,08,24,14,33,19.10
2013,08,24,14,34,19.10
2013,08,24,14,35,19.10
2013,08,24,14,36,19.20
2013,08,24,14,37,19.20
2013,08,24,14,38,19.20
2013,08,24,14,39,19.20
2013,08,24,14,40,19.20
2013,08,24,14,41,19.20
2013,08,24,14,42,19.20
2013,08,24,14,43,19.20
2013,08,24,14,44,19.20
2013,08,24,14,45,19.20
2013,08,24,14,46,19.20
2013,08,24,14,47,19.20
2013,08,24,14,48,19.20
2013,08,24,14,49,19.20
2013,08,24,14,50,19.20
2013,08,24,14,51,19.10
2013,08,24,14,52,19.00
2013,08,24,14,53,18.80
2013,08,24,14,54,18.70
2013,08,24,14,55,18.70
2013,08,24,14,56,18.60
2013,08,24,14,57,18.60
2013,08,24,14,58,18.60
2013,08,24,14,59,18.60
2013,08,24,15,00,18.50
2013,08,24,15,01,18.50
2013,08,24,15,02,18.50
2013,08,24,15,03,18.50
2013,08,24,15,04,18.50
2013,08,24,15,05,18.50
2013,08,24,15,06,18.60
2013,08,24,15,07,18.60
2013,08,24,15,08,18.60
2013,08,24,15,09,18.70
2013,08,24,15,10,18.70
2013,08,24,15,11,18.70
2013,08,24,15,12,18.70
2013,08,24,15,13,18.70
2013,08,24,15,14,18.70
2013,08,24,15,15,18.70
2013,08,24,15,16,18.80
2013,08,24,15,17,18.80
2013,08,24,15,18,18.80
2013,08,24,15,19,18.80
2013,08,24,15,20,18.80
2013,08,24,15,21,18.80
2013,08,24,15,22,18.80
2013,08,24,15,23,18.80
2013,08,24,15,24,18.80
2013,08,24,15,25,18.90
2013,08,24,15,26,18.90
2013,08,24,15,27,18.90
2013,08,24,15,28,19.00
2013,08,24,15,29,19.00
2013,08,24,15,30,19.10
2013,08,24,15,31,19.10
2013,08,24,15,32,19.20
2013,08,24,15,33,19.20
2013,08,24,15,34,19.30
2013,08,24,15,35,19.30
2013,08,24,15,36,19.40
2013,08,24,15,37,19.40
2013,08,24,15,38,19.30
2013,08,24,15,39,19.30
2013,08,24,15,40,19.30
2013,08,24,15,41,19.30
2013,08,24,15,42,19.20
2013,08,24,15,43,19.10
2013,08,24,15,44,19.00
2013,08,24,15,45,18.90
2013,08,24,15,46,18.90
2013,08,24,15,47,18.90
2013,08,24,15,48,18.90
2013,08,24,15,49,18.90
2013,08,24,15,50,18.80
2013,08,24,15,51,18.80
2013,08,24,15,52,18.80
2013,08,24,15,53,18.90
2013,08,24,15,54,18.90
2013,08,24,15,55,18.90
2013,08,24,15,56,19.00
2013,08,24,15,57,19.10
2013,08,24,15,58,19.20
2013,08,24,15,59,19.30
2013,08,24,16,00,19.30
2013,08,24,16,01,19.40
2013,08,24,16,02,19.50
2013,08,24,16,03,19.60
2013,08,24,16,04,19.70
2013,08,24,16,05,19.80
2013,08,24,16,06,19.90
2013,08,24,16,07,20.00
2013,08,24,16,08,20.10
2013,08,24,16,09,20.20
2013,08,24,16,10,20.30
2013,08,24,16,11,20.40
2013,08,24,16,12,20.40
2013,08,24,16,13,20.40
2013,08,24,16,14,20.40
2013,08,24,16,15,20.50
2013,08,24,16,16,20.60
2013,08,24,16,17,20.70
2013,08,24,16,18,20.70
2013,08,24,16,19,20.80
2013,08,24,16,20,20.70
2013,08,24,16,21,20.70
2013,08,24,16,22,20.70
2013,08,24,16,23,20.80
2013,08,24,16,24,20.70
2013,08,24,16,25,20.70
2013,08,24,16,26,20.70
2013,08,24,16,27,20.70
2013,08,24,16,28,20.70
2013,08,24,16,29,20.60
2013,08,24,16,30,20.60
2013,08,24,16,31,20.60
2013,08,24,16,32,20.60
2013,08,24,16,33,20.60
2013,08,24,16,34,20.70
2013,08,24,16,35,20.70
2013,08,24,16,36,20.80
2013,08,24,16,37,21.00
2013,08,24,16,38,21.20
2013,08,24,16,39,21.30
2013,08,24,16,40,21.50
2013,08,24,16,41,21.60
2013,08,24,16,42,21.80
2013,08,24,16,43,21.80
2013,08,24,16,44,21.90
2013,08,24,16,45,21.90
2013,08,24,16,46,21.80
2013,08,24,16,47,21.80
2013,08,24,16,48,21.70
2013,08,24,16,49,21.60
2013,08,24,16,50,21.40
2013,08,24,16,51,21.30
2013,08,24,16,52,21.30
2013,08,24,16,53,21.40
2013,08,24,16,54,21.40
2013,08,24,16,55,21.50
2013,08,24,16,56,21.50
2013,08,24,16,57,21.40
2013,08,24,16,58,21.40
2013,08,24,16,59,21.30
2013,08,24,17,00,21.30
2013,08,24,17,01,21.30
2013,08,24,17,02,21.20
2013,08,24,17,03,21.20
2013,08,24,17,04,21.20
2013,08,24,17,05,21.20
2013,08,24,17,06,21.10
2013,08,24,17,07,20.90
2013,08,24,17,08,20.90
2013,08,24,17,09,20.80
2013,08,24,17,10,20.80
2013,08,24,17,11,20.80
2013,08,24,17,12,20.80
2013,08,24,17,13,20.80
2013,08,24,17,14,20.90
2013,08,24,17,15,20.90
2013,08,24,17,16,20.90
2013,08,24,17,17,20.90
2013,08,24,17,18,20.90
2013,08,24,17,19,21.00